カタログに戻る

STARLINK-30207

運用中通信VLEO
NORAD 57407·PAYLOAD·🇺🇸 United States

打ち上げ Jul 20, 2023 から Vandenberg Space Force Base

Loading…

次のパス (今後24時間)

TLE

最新Source: CelesTrak SupGP

元期: Sep 14, 2026, 20:34 UTC

1 57407C 23102D   26257.85743056  .00028169  00000+0  10205-2 0  2573
2 57407  43.0022 245.7529 0001457 260.0532 304.8371 15.27557949    16

AllMySatでSTARLINK-30207をリアルタイム追跡

Download on the App Store